Location: Sternwarte auf dem Internationalen Platz Vogelsang IP
(50.5721°N, 6.4398°E)
Time: 05:22:58
(UTC+01:00)

Transit 2A Rocket - Pass Details

Date: 10 December 2025
Orbit: 581 x 903 km, 66.7° (Epoch: 13 January)

Event Time Altitude Azimuth Distance (km) Brightness Sun altitude
Rises 13:55:26 0° 299° (WNW) 3,474 8.3 13.9°
Reaches altitude 10° 13:58:54 10° 319° (NW) 2,568 7.5 13.7°
Maximum altitude 14:02:42 17° 358° (N) 2,126 6.8 13.5°
Drops below altitude 10° 14:06:33 10° 38° (NE) 2,590 7.2 13.3°
Sets 14:10:03 0° 58° (ENE) 3,517 7.9 13.0°
